Year,Month,Day,Hour,Minute,Value (Times are PST for temperature in C)
2012,05,18,00,00,9.30
2012,05,18,00,01,9.30
2012,05,18,00,02,9.30
2012,05,18,00,03,9.30
2012,05,18,00,04,9.20
2012,05,18,00,05,9.20
2012,05,18,00,06,9.20
2012,05,18,00,07,9.20
2012,05,18,00,08,9.20
2012,05,18,00,09,9.20
2012,05,18,00,10,9.20
2012,05,18,00,11,9.20
2012,05,18,00,12,9.20
2012,05,18,00,13,9.20
2012,05,18,00,14,9.20
2012,05,18,00,15,9.20
2012,05,18,00,16,9.20
2012,05,18,00,17,9.20
2012,05,18,00,18,9.20
2012,05,18,00,19,9.20
2012,05,18,00,20,9.20
2012,05,18,00,21,9.20
2012,05,18,00,22,9.20
2012,05,18,00,23,9.20
2012,05,18,00,24,9.20
2012,05,18,00,25,9.20
2012,05,18,00,26,9.20
2012,05,18,00,27,9.10
2012,05,18,00,28,9.10
2012,05,18,00,29,9.10
2012,05,18,00,30,9.10
2012,05,18,00,31,9.10
2012,05,18,00,32,9.10
2012,05,18,00,33,9.10
2012,05,18,00,34,9.10
2012,05,18,00,35,9.10
2012,05,18,00,36,9.10
2012,05,18,00,37,9.10
2012,05,18,00,38,9.10
2012,05,18,00,39,9.10
2012,05,18,00,40,9.10
2012,05,18,00,41,9.10
2012,05,18,00,42,9.10
2012,05,18,00,43,9.10
2012,05,18,00,44,9.10
2012,05,18,00,45,9.10
2012,05,18,00,46,9.10
2012,05,18,00,47,9.10
2012,05,18,00,48,9.10
2012,05,18,00,49,9.00
2012,05,18,00,50,9.00
2012,05,18,00,51,9.00
2012,05,18,00,52,9.10
2012,05,18,00,53,9.00
2012,05,18,00,54,9.00
2012,05,18,00,55,9.00
2012,05,18,00,56,9.00
2012,05,18,00,57,9.00
2012,05,18,00,58,9.00
2012,05,18,00,59,9.00
2012,05,18,01,00,9.00
2012,05,18,01,01,9.00
2012,05,18,01,02,9.00
2012,05,18,01,03,9.00
2012,05,18,01,04,9.00
2012,05,18,01,05,9.00
2012,05,18,01,06,9.00
2012,05,18,01,07,9.00
2012,05,18,01,08,9.00
2012,05,18,01,09,8.90
2012,05,18,01,10,8.90
2012,05,18,01,11,8.90
2012,05,18,01,12,8.90
2012,05,18,01,13,8.90
2012,05,18,01,14,8.90
2012,05,18,01,15,8.90
2012,05,18,01,16,8.90
2012,05,18,01,17,8.90
2012,05,18,01,18,8.90
2012,05,18,01,19,8.90
2012,05,18,01,20,8.90
2012,05,18,01,21,8.90
2012,05,18,01,22,8.90
2012,05,18,01,23,8.90
2012,05,18,01,24,8.90
2012,05,18,01,25,8.90
2012,05,18,01,26,8.90
2012,05,18,01,27,8.90
2012,05,18,01,28,8.90
2012,05,18,01,29,8.80
2012,05,18,01,30,8.80
2012,05,18,01,31,8.80
2012,05,18,01,32,8.80
2012,05,18,01,33,8.80
2012,05,18,01,34,8.80
2012,05,18,01,35,8.80
2012,05,18,01,36,8.80
2012,05,18,01,37,8.80
2012,05,18,01,38,8.80
2012,05,18,01,39,8.80
2012,05,18,01,40,8.80
2012,05,18,01,41,8.80
2012,05,18,01,42,8.80
2012,05,18,01,43,8.80
2012,05,18,01,44,8.80
2012,05,18,01,45,8.80
2012,05,18,01,46,8.80
2012,05,18,01,47,8.80
2012,05,18,01,48,8.80
2012,05,18,01,49,8.80
2012,05,18,01,50,8.80
2012,05,18,01,51,8.80
2012,05,18,01,52,8.80
2012,05,18,01,53,8.80
2012,05,18,01,54,8.80
2012,05,18,01,55,8.80
2012,05,18,01,56,8.80
2012,05,18,01,57,8.80
2012,05,18,01,58,8.80
2012,05,18,01,59,8.80
2012,05,18,02,00,8.80
2012,05,18,02,01,8.80
2012,05,18,02,02,8.80
2012,05,18,02,03,8.80
2012,05,18,02,04,8.80
2012,05,18,02,05,8.80
2012,05,18,02,06,8.80
2012,05,18,02,07,8.70
2012,05,18,02,08,8.70
2012,05,18,02,09,8.70
2012,05,18,02,10,8.70
2012,05,18,02,11,8.70
2012,05,18,02,12,8.70
2012,05,18,02,13,8.70
2012,05,18,02,14,8.70
2012,05,18,02,15,8.70
2012,05,18,02,16,8.70
2012,05,18,02,17,8.70
2012,05,18,02,18,8.70
2012,05,18,02,19,8.70
2012,05,18,02,20,8.70
2012,05,18,02,21,8.70
2012,05,18,02,22,8.70
2012,05,18,02,23,8.70
2012,05,18,02,24,8.70
2012,05,18,02,25,8.70
2012,05,18,02,26,8.70
2012,05,18,02,27,8.70
2012,05,18,02,28,8.70
2012,05,18,02,29,8.70
2012,05,18,02,30,8.70
2012,05,18,02,31,8.70
2012,05,18,02,32,8.70
2012,05,18,02,33,8.70
2012,05,18,02,34,8.70
2012,05,18,02,35,8.70
2012,05,18,02,36,8.70
2012,05,18,02,37,8.60
2012,05,18,02,38,8.60
2012,05,18,02,39,8.60
2012,05,18,02,40,8.60
2012,05,18,02,41,8.60
2012,05,18,02,42,8.60
2012,05,18,02,43,8.60
2012,05,18,02,44,8.60
2012,05,18,02,45,8.60
2012,05,18,02,46,8.60
2012,05,18,02,47,8.60
2012,05,18,02,48,8.60
2012,05,18,02,49,8.60
2012,05,18,02,50,8.60
2012,05,18,02,51,8.60
2012,05,18,02,52,8.60
2012,05,18,02,53,8.60
2012,05,18,02,54,8.60
2012,05,18,02,55,8.50
2012,05,18,02,56,8.50
2012,05,18,02,57,8.50
2012,05,18,02,58,8.50
2012,05,18,02,59,8.50
2012,05,18,03,00,8.50
2012,05,18,03,01,8.50
2012,05,18,03,02,8.50
2012,05,18,03,03,8.50
2012,05,18,03,04,8.50
2012,05,18,03,05,8.50
2012,05,18,03,06,8.50
2012,05,18,03,07,8.40
2012,05,18,03,08,8.40
2012,05,18,03,09,8.40
2012,05,18,03,10,8.40
2012,05,18,03,11,8.40
2012,05,18,03,12,8.40
2012,05,18,03,13,8.40
2012,05,18,03,14,8.40
2012,05,18,03,15,8.40
2012,05,18,03,16,8.40
2012,05,18,03,17,8.40
2012,05,18,03,18,8.40
2012,05,18,03,19,8.40
2012,05,18,03,20,8.40
2012,05,18,03,21,8.40
2012,05,18,03,22,8.40
2012,05,18,03,23,8.40
2012,05,18,03,24,8.40
2012,05,18,03,25,8.40
2012,05,18,03,26,8.40
2012,05,18,03,27,8.40
2012,05,18,03,28,8.40
2012,05,18,03,29,8.40
2012,05,18,03,30,8.40
2012,05,18,03,31,8.40
2012,05,18,03,32,8.40
2012,05,18,03,33,8.40
2012,05,18,03,34,8.40
2012,05,18,03,35,8.40
2012,05,18,03,36,8.40
2012,05,18,03,37,8.40
2012,05,18,03,38,8.40
2012,05,18,03,39,8.40
2012,05,18,03,40,8.40
2012,05,18,03,41,8.40
2012,05,18,03,42,8.40
2012,05,18,03,43,8.40
2012,05,18,03,44,8.40
2012,05,18,03,45,8.40
2012,05,18,03,46,8.40
2012,05,18,03,47,8.40
2012,05,18,03,48,8.40
2012,05,18,03,49,8.40
2012,05,18,03,50,8.30
2012,05,18,03,51,8.30
2012,05,18,03,52,8.30
2012,05,18,03,53,8.30
2012,05,18,03,54,8.30
2012,05,18,03,55,8.30
2012,05,18,03,56,8.30
2012,05,18,03,57,8.20
2012,05,18,03,58,8.20
2012,05,18,03,59,8.20
2012,05,18,04,00,8.20
2012,05,18,04,01,8.20
2012,05,18,04,02,8.20
2012,05,18,04,03,8.20
2012,05,18,04,04,8.20
2012,05,18,04,05,8.20
2012,05,18,04,06,8.20
2012,05,18,04,07,8.20
2012,05,18,04,08,8.20
2012,05,18,04,09,8.20
2012,05,18,04,10,8.20
2012,05,18,04,11,8.20
2012,05,18,04,12,8.20
2012,05,18,04,13,8.20
2012,05,18,04,14,8.20
2012,05,18,04,15,8.20
2012,05,18,04,16,8.20
2012,05,18,04,17,8.20
2012,05,18,04,18,8.20
2012,05,18,04,19,8.20
2012,05,18,04,20,8.20
2012,05,18,04,21,8.20
2012,05,18,04,22,8.20
2012,05,18,04,23,8.20
2012,05,18,04,24,8.20
2012,05,18,04,25,8.20
2012,05,18,04,26,8.20
2012,05,18,04,27,8.20
2012,05,18,04,28,8.20
2012,05,18,04,29,8.20
2012,05,18,04,30,8.20
2012,05,18,04,31,8.20
2012,05,18,04,32,8.20
2012,05,18,04,33,8.20
2012,05,18,04,34,8.20
2012,05,18,04,35,8.20
2012,05,18,04,36,8.20
2012,05,18,04,37,8.20
2012,05,18,04,38,8.20
2012,05,18,04,39,8.20
2012,05,18,04,40,8.20
2012,05,18,04,41,8.20
2012,05,18,04,42,8.10
2012,05,18,04,43,8.10
2012,05,18,04,44,8.10
2012,05,18,04,45,8.10
2012,05,18,04,46,8.10
2012,05,18,04,47,8.10
2012,05,18,04,48,8.10
2012,05,18,04,49,8.10
2012,05,18,04,50,8.10
2012,05,18,04,51,8.10
2012,05,18,04,52,8.20
2012,05,18,04,53,8.20
2012,05,18,04,54,8.20
2012,05,18,04,55,8.20
2012,05,18,04,56,8.20
2012,05,18,04,57,8.20
2012,05,18,04,58,8.20
2012,05,18,04,59,8.10
2012,05,18,05,00,8.10
2012,05,18,05,01,8.00
2012,05,18,05,02,8.00
2012,05,18,05,03,7.90
2012,05,18,05,04,7.80
2012,05,18,05,05,7.80
2012,05,18,05,06,7.70
2012,05,18,05,07,7.60
2012,05,18,05,08,7.60
2012,05,18,05,09,7.50
2012,05,18,05,10,7.50
2012,05,18,05,11,7.40
2012,05,18,05,12,7.30
2012,05,18,05,13,7.30
2012,05,18,05,14,7.30
2012,05,18,05,15,7.20
2012,05,18,05,16,7.20
2012,05,18,05,17,7.10
2012,05,18,05,18,7.00
2012,05,18,05,19,7.00
2012,05,18,05,20,6.90
2012,05,18,05,21,6.90
2012,05,18,05,22,6.80
2012,05,18,05,23,6.80
2012,05,18,05,24,6.70
2012,05,18,05,25,6.70
2012,05,18,05,26,6.60
2012,05,18,05,27,6.60
2012,05,18,05,28,6.60
2012,05,18,05,29,6.40
2012,05,18,05,30,6.40
2012,05,18,05,31,6.40
2012,05,18,05,32,6.30
2012,05,18,05,33,6.20
2012,05,18,05,34,6.20
2012,05,18,05,35,6.20
2012,05,18,05,36,6.20
2012,05,18,05,37,6.20
2012,05,18,05,38,6.10
2012,05,18,05,39,6.10
2012,05,18,05,40,6.10
2012,05,18,05,41,6.10
2012,05,18,05,42,6.00
2012,05,18,05,43,6.00
2012,05,18,05,44,6.00
2012,05,18,05,45,6.00
2012,05,18,05,46,6.00
2012,05,18,05,47,5.90
2012,05,18,05,48,5.90
2012,05,18,05,49,5.90
2012,05,18,05,50,5.90
2012,05,18,05,51,5.90
2012,05,18,05,52,5.90
2012,05,18,05,53,5.90
2012,05,18,05,54,5.90
2012,05,18,05,55,5.80
2012,05,18,05,56,5.80
2012,05,18,05,57,5.80
2012,05,18,05,58,5.80
2012,05,18,05,59,5.80
2012,05,18,06,00,5.80
2012,05,18,06,01,5.80
2012,05,18,06,02,5.80
2012,05,18,06,03,5.80
2012,05,18,06,04,5.80
2012,05,18,06,05,5.80
2012,05,18,06,06,5.80
2012,05,18,06,07,5.80
2012,05,18,06,08,5.80
2012,05,18,06,09,5.80
2012,05,18,06,10,5.80
2012,05,18,06,11,5.80
2012,05,18,06,12,5.80
2012,05,18,06,13,5.80
2012,05,18,06,14,5.80
2012,05,18,06,15,5.80
2012,05,18,06,16,5.80
2012,05,18,06,17,5.80
2012,05,18,06,18,5.80
2012,05,18,06,19,5.80
2012,05,18,06,20,5.80
2012,05,18,06,21,5.80
2012,05,18,06,22,5.90
2012,05,18,06,23,5.90
2012,05,18,06,24,6.00
2012,05,18,06,25,6.00
2012,05,18,06,26,6.10
2012,05,18,06,27,6.10
2012,05,18,06,28,6.20
2012,05,18,06,29,6.20
2012,05,18,06,30,6.30
2012,05,18,06,31,6.40
2012,05,18,06,32,6.40
2012,05,18,06,33,6.50
2012,05,18,06,34,6.60
2012,05,18,06,35,6.70
2012,05,18,06,36,6.70
2012,05,18,06,37,6.80
2012,05,18,06,38,6.80
2012,05,18,06,39,6.80
2012,05,18,06,40,6.80
2012,05,18,06,41,6.90
2012,05,18,06,42,6.90
2012,05,18,06,43,7.00
2012,05,18,06,44,7.00
2012,05,18,06,45,7.10
2012,05,18,06,46,7.10
2012,05,18,06,47,7.20
2012,05,18,06,48,7.20
2012,05,18,06,49,7.30
2012,05,18,06,50,7.30
2012,05,18,06,51,7.30
2012,05,18,06,52,7.30
2012,05,18,06,53,7.30
2012,05,18,06,54,7.30
2012,05,18,06,55,7.60
2012,05,18,06,56,7.70
2012,05,18,06,57,7.70
2012,05,18,06,58,7.80
2012,05,18,06,59,7.90
2012,05,18,07,00,7.90
2012,05,18,07,01,8.00
2012,05,18,07,02,8.00
2012,05,18,07,03,8.00
2012,05,18,07,04,8.10
2012,05,18,07,05,8.10
2012,05,18,07,06,8.20
2012,05,18,07,07,8.20
2012,05,18,07,08,8.20
2012,05,18,07,09,8.20
2012,05,18,07,10,8.20
2012,05,18,07,11,8.30
2012,05,18,07,12,8.30
2012,05,18,07,13,8.30
2012,05,18,07,14,8.40
2012,05,18,07,15,8.40
2012,05,18,07,16,8.40
2012,05,18,07,17,8.40
2012,05,18,07,18,8.40
2012,05,18,07,19,8.50
2012,05,18,07,20,8.50
2012,05,18,07,21,8.50
2012,05,18,07,22,8.50
2012,05,18,07,23,8.60
2012,05,18,07,24,8.60
2012,05,18,07,25,8.60
2012,05,18,07,26,8.70
2012,05,18,07,27,8.70
2012,05,18,07,28,8.70
2012,05,18,07,29,8.70
2012,05,18,07,30,8.70
2012,05,18,07,31,8.70
2012,05,18,07,32,8.70
2012,05,18,07,33,8.70
2012,05,18,07,34,8.70
2012,05,18,07,35,8.70
2012,05,18,07,36,8.70
2012,05,18,07,37,8.80
2012,05,18,07,38,8.80
2012,05,18,07,39,8.90
2012,05,18,07,40,8.90
2012,05,18,07,41,8.90
2012,05,18,07,42,9.00
2012,05,18,07,43,9.00
2012,05,18,07,44,9.00
2012,05,18,07,45,9.00
2012,05,18,07,46,9.10
2012,05,18,07,47,9.10
2012,05,18,07,48,9.20
2012,05,18,07,49,9.20
2012,05,18,07,50,9.20
2012,05,18,07,51,9.20
2012,05,18,07,52,9.30
2012,05,18,07,53,9.30
2012,05,18,07,54,9.30
2012,05,18,07,55,9.40
2012,05,18,07,56,9.40
2012,05,18,07,57,9.50
2012,05,18,07,58,9.50
2012,05,18,07,59,9.60
2012,05,18,08,00,9.60
2012,05,18,08,01,9.60
2012,05,18,08,02,9.70
2012,05,18,08,03,9.70
2012,05,18,08,04,9.70
2012,05,18,08,05,9.70
2012,05,18,08,06,9.70
2012,05,18,08,07,9.70
2012,05,18,08,08,9.70
2012,05,18,08,09,9.70
2012,05,18,08,10,9.70
2012,05,18,08,11,9.80
2012,05,18,08,12,9.80
2012,05,18,08,13,9.90
2012,05,18,08,14,9.90
2012,05,18,08,15,9.90
2012,05,18,08,16,9.90
2012,05,18,08,17,9.90
2012,05,18,08,18,9.90
2012,05,18,08,19,9.90
2012,05,18,08,20,9.90
2012,05,18,08,21,9.90
2012,05,18,08,22,9.90
2012,05,18,08,23,9.90
2012,05,18,08,24,10.00
2012,05,18,08,25,10.10
2012,05,18,08,26,10.10
2012,05,18,08,27,10.20
2012,05,18,08,28,10.20
2012,05,18,08,29,10.30
2012,05,18,08,30,10.30
2012,05,18,08,31,10.30
2012,05,18,08,32,10.30
2012,05,18,08,33,10.30
2012,05,18,08,34,10.40
2012,05,18,08,35,10.40
2012,05,18,08,36,10.40
2012,05,18,08,37,10.50
2012,05,18,08,38,10.60
2012,05,18,08,39,10.60
2012,05,18,08,40,10.60
2012,05,18,08,41,10.60
2012,05,18,08,42,10.60
2012,05,18,08,43,10.60
2012,05,18,08,44,10.60
2012,05,18,08,45,10.60
2012,05,18,08,46,10.60
2012,05,18,08,47,10.60
2012,05,18,08,48,10.60
2012,05,18,08,49,10.60
2012,05,18,08,50,10.60
2012,05,18,08,51,10.60
2012,05,18,08,52,10.60
2012,05,18,08,53,10.60
2012,05,18,08,54,10.60
2012,05,18,08,55,10.60
2012,05,18,08,56,10.60
2012,05,18,08,57,10.60
2012,05,18,08,58,10.60
2012,05,18,08,59,10.70
2012,05,18,09,00,10.70
2012,05,18,09,01,10.70
2012,05,18,09,02,10.70
2012,05,18,09,03,10.70
2012,05,18,09,04,10.70
2012,05,18,09,05,10.60
2012,05,18,09,06,10.60
2012,05,18,09,07,10.60
2012,05,18,09,08,10.60
2012,05,18,09,09,10.60
2012,05,18,09,10,10.60
2012,05,18,09,11,10.60
2012,05,18,09,12,10.60
2012,05,18,09,13,10.60
2012,05,18,09,14,10.60
2012,05,18,09,15,10.60
2012,05,18,09,16,10.60
2012,05,18,09,17,10.70
2012,05,18,09,18,10.80
2012,05,18,09,19,10.80
2012,05,18,09,20,10.90
2012,05,18,09,21,10.90
2012,05,18,09,22,11.00
2012,05,18,09,23,11.10
2012,05,18,09,24,11.10
2012,05,18,09,25,11.10
2012,05,18,09,26,10.90
2012,05,18,09,27,10.80
2012,05,18,09,28,10.70
2012,05,18,09,29,10.70
2012,05,18,09,30,10.90
2012,05,18,09,31,10.90
2012,05,18,09,32,10.90
2012,05,18,09,33,10.90
2012,05,18,09,34,11.10
2012,05,18,09,35,11.10
2012,05,18,09,36,11.00
2012,05,18,09,37,10.90
2012,05,18,09,38,11.00
2012,05,18,09,39,11.10
2012,05,18,09,40,11.10
2012,05,18,09,41,11.10
2012,05,18,09,42,11.10
2012,05,18,09,43,11.10
2012,05,18,09,44,11.10
2012,05,18,09,45,11.10
2012,05,18,09,46,11.10
2012,05,18,09,47,11.10
2012,05,18,09,48,11.10
2012,05,18,09,49,11.20
2012,05,18,09,50,11.30
2012,05,18,09,51,11.30
2012,05,18,09,52,11.30
2012,05,18,09,53,11.20
2012,05,18,09,54,11.10
2012,05,18,09,55,11.10
2012,05,18,09,56,11.20
2012,05,18,09,57,11.40
2012,05,18,09,58,11.60
2012,05,18,09,59,11.60
2012,05,18,10,00,11.60
2012,05,18,10,01,11.60
2012,05,18,10,02,11.60
2012,05,18,10,03,11.60
2012,05,18,10,04,11.60
2012,05,18,10,05,11.50
2012,05,18,10,06,11.40
2012,05,18,10,07,11.30
2012,05,18,10,08,11.20
2012,05,18,10,09,11.20
2012,05,18,10,10,11.20
2012,05,18,10,11,11.30
2012,05,18,10,12,11.30
2012,05,18,10,13,11.30
2012,05,18,10,14,11.20
2012,05,18,10,15,11.20
2012,05,18,10,16,11.10
2012,05,18,10,17,11.10
2012,05,18,10,18,11.10
2012,05,18,10,19,11.10
2012,05,18,10,20,11.10
2012,05,18,10,21,11.10
2012,05,18,10,22,11.10
2012,05,18,10,23,11.10
2012,05,18,10,24,11.10
2012,05,18,10,25,11.10
2012,05,18,10,26,11.20
2012,05,18,10,27,11.20
2012,05,18,10,28,11.30
2012,05,18,10,29,11.40
2012,05,18,10,30,11.50
2012,05,18,10,31,11.60
2012,05,18,10,32,11.60
2012,05,18,10,33,11.60
2012,05,18,10,34,11.60
2012,05,18,10,35,11.60
2012,05,18,10,36,11.50
2012,05,18,10,37,11.40
2012,05,18,10,38,11.40
2012,05,18,10,39,11.40
2012,05,18,10,40,11.40
2012,05,18,10,41,11.40
2012,05,18,10,42,11.40
2012,05,18,10,43,11.40
2012,05,18,10,44,11.50
2012,05,18,10,45,11.50
2012,05,18,10,46,11.40
2012,05,18,10,47,11.40
2012,05,18,10,48,11.40
2012,05,18,10,49,11.40
2012,05,18,10,50,11.40
2012,05,18,10,51,11.40
2012,05,18,10,52,11.30
2012,05,18,10,53,11.30
2012,05,18,10,54,11.30
2012,05,18,10,55,11.30
2012,05,18,10,56,11.30
2012,05,18,10,57,11.40
2012,05,18,10,58,11.40
2012,05,18,10,59,11.30
2012,05,18,11,00,11.30
2012,05,18,11,01,11.20
2012,05,18,11,02,11.20
2012,05,18,11,03,11.30
2012,05,18,11,04,11.30
2012,05,18,11,05,11.40
2012,05,18,11,06,11.40
2012,05,18,11,07,11.40
2012,05,18,11,08,11.40
2012,05,18,11,09,11.40
2012,05,18,11,10,11.40
2012,05,18,11,11,11.30
2012,05,18,11,12,11.30
2012,05,18,11,13,11.30
2012,05,18,11,14,11.30
2012,05,18,11,15,11.30
2012,05,18,11,16,11.30
2012,05,18,11,17,11.30
2012,05,18,11,18,11.40
2012,05,18,11,19,11.40
2012,05,18,11,20,11.60
2012,05,18,11,21,11.60
2012,05,18,11,22,11.70
2012,05,18,11,23,11.80
2012,05,18,11,24,11.80
2012,05,18,11,25,11.70
2012,05,18,11,26,11.60
2012,05,18,11,27,11.60
2012,05,18,11,28,11.60
2012,05,18,11,29,11.60
2012,05,18,11,30,11.80
2012,05,18,11,31,11.90
2012,05,18,11,32,12.00
2012,05,18,11,33,12.00
2012,05,18,11,34,12.00
2012,05,18,11,35,12.10
2012,05,18,11,36,12.10
2012,05,18,11,37,12.20
2012,05,18,11,38,12.40
2012,05,18,11,39,12.50
2012,05,18,11,40,12.70
2012,05,18,11,41,12.80
2012,05,18,11,42,12.80
2012,05,18,11,43,12.60
2012,05,18,11,44,12.60
2012,05,18,11,45,12.60
2012,05,18,11,46,12.60
2012,05,18,11,47,12.50
2012,05,18,11,48,12.40
2012,05,18,11,49,12.50
2012,05,18,11,50,12.60
2012,05,18,11,51,12.80
2012,05,18,11,52,12.80
2012,05,18,11,53,12.80
2012,05,18,11,54,12.70
2012,05,18,11,55,12.50
2012,05,18,11,56,12.30
2012,05,18,11,57,12.30
2012,05,18,11,58,12.40
2012,05,18,11,59,12.40
2012,05,18,12,00,12.30
2012,05,18,12,01,12.30
2012,05,18,12,02,12.40
2012,05,18,12,03,12.40
2012,05,18,12,04,12.40
2012,05,18,12,05,12.40
2012,05,18,12,06,12.40
2012,05,18,12,07,12.40
2012,05,18,12,08,12.40
2012,05,18,12,09,12.40
2012,05,18,12,10,12.40
2012,05,18,12,11,12.40
2012,05,18,12,12,12.40
2012,05,18,15,01,11.80
2012,05,18,15,02,11.90
2012,05,18,15,03,12.10
2012,05,18,15,04,12.10
2012,05,18,15,05,12.20
2012,05,18,15,06,12.30
2012,05,18,15,07,12.30
2012,05,18,15,08,12.30
2012,05,18,15,09,12.30
2012,05,18,15,10,12.10
2012,05,18,15,11,11.90
2012,05,18,15,12,11.80
2012,05,18,15,13,11.70
2012,05,18,15,14,11.60
2012,05,18,15,15,11.60
2012,05,18,15,16,11.40
2012,05,18,15,17,11.40
2012,05,18,15,18,11.40
2012,05,18,15,19,11.50
2012,05,18,15,20,11.60
2012,05,18,15,21,11.70
2012,05,18,15,22,11.80
2012,05,18,15,23,11.80
2012,05,18,15,24,11.80
2012,05,18,15,25,11.80
2012,05,18,15,26,11.80
2012,05,18,15,27,11.70
2012,05,18,15,28,11.60
2012,05,18,15,29,11.50
2012,05,18,15,30,11.50
2012,05,18,15,31,11.50
2012,05,18,15,32,11.60
2012,05,18,15,33,11.60
2012,05,18,15,34,11.70
2012,05,18,15,35,11.80
2012,05,18,15,36,11.90
2012,05,18,15,37,12.00
2012,05,18,15,38,12.10
2012,05,18,15,39,12.20
2012,05,18,15,40,12.10
2012,05,18,15,41,12.10
2012,05,18,15,42,12.00
2012,05,18,15,43,12.00
2012,05,18,15,44,12.00
2012,05,18,15,45,12.00
2012,05,18,15,46,11.90
2012,05,18,15,47,11.80
2012,05,18,15,48,11.80
2012,05,18,15,49,11.80
2012,05,18,15,50,11.80
2012,05,18,15,51,11.90
2012,05,18,15,52,11.90
2012,05,18,15,53,12.00
2012,05,18,15,54,12.00
2012,05,18,15,55,11.90
2012,05,18,15,56,11.90
2012,05,18,15,57,11.90
2012,05,18,15,58,11.90
2012,05,18,15,59,11.90
2012,05,18,16,00,11.90
2012,05,18,16,01,11.90
2012,05,18,16,02,12.00
2012,05,18,16,03,12.00
2012,05,18,16,04,12.00
2012,05,18,16,05,12.00
2012,05,18,16,06,12.00
2012,05,18,16,07,11.80
2012,05,18,16,08,11.80
2012,05,18,16,09,11.80
2012,05,18,16,10,11.80
2012,05,18,16,11,11.80
2012,05,18,16,12,11.80
2012,05,18,16,13,11.90
2012,05,18,16,14,11.90
2012,05,18,16,15,11.90
2012,05,18,16,16,11.80
2012,05,18,16,17,11.80
2012,05,18,16,18,11.90
2012,05,18,16,19,12.00
2012,05,18,16,20,12.00
2012,05,18,16,21,12.10
2012,05,18,16,22,12.20
2012,05,18,16,23,12.20
2012,05,18,16,24,12.30
2012,05,18,16,25,12.30
2012,05,18,16,26,12.30
2012,05,18,16,27,12.30
2012,05,18,16,28,12.40
2012,05,18,16,29,12.50
2012,05,18,16,30,12.50
2012,05,18,16,31,12.60
2012,05,18,16,32,12.60
2012,05,18,16,33,12.50
2012,05,18,16,34,12.40
2012,05,18,16,35,12.30
2012,05,18,16,36,12.30
2012,05,18,16,37,12.30
2012,05,18,16,38,12.30
2012,05,18,16,39,12.10
2012,05,18,16,40,12.00
2012,05,18,16,41,12.00
2012,05,18,16,42,12.00
2012,05,18,16,43,12.10
2012,05,18,16,44,12.10
2012,05,18,16,45,12.10
2012,05,18,16,46,12.20
2012,05,18,16,47,12.20
2012,05,18,16,48,12.20
2012,05,18,16,49,12.10
2012,05,18,16,50,12.10
2012,05,18,16,51,12.10
2012,05,18,16,52,12.20
2012,05,18,16,53,12.30
2012,05,18,16,54,12.30
2012,05,18,16,55,12.30
2012,05,18,16,56,12.30
2012,05,18,16,57,12.30
2012,05,18,16,58,12.30
2012,05,18,16,59,12.40
2012,05,18,17,00,12.40
2012,05,18,17,01,12.40
2012,05,18,17,02,12.40
2012,05,18,17,03,12.30
2012,05,18,17,04,12.40
2012,05,18,17,05,12.30
2012,05,18,17,06,12.30
2012,05,18,17,07,12.40
2012,05,18,17,08,12.40
2012,05,18,17,09,12.30
2012,05,18,17,10,12.30
2012,05,18,17,11,12.30
2012,05,18,17,12,12.30
2012,05,18,17,13,12.30
2012,05,18,17,14,12.30
2012,05,18,17,15,12.30
2012,05,18,17,16,12.30
2012,05,18,17,17,12.30
2012,05,18,17,18,12.30
2012,05,18,17,19,12.30
2012,05,18,17,20,12.40
2012,05,18,17,21,12.50
2012,05,18,17,22,12.50
2012,05,18,17,23,12.50
2012,05,18,17,24,12.60
2012,05,18,17,25,12.60
2012,05,18,17,26,12.70
2012,05,18,17,27,12.80
2012,05,18,17,28,12.80
2012,05,18,17,29,12.80
2012,05,18,17,30,12.80
2012,05,18,17,31,12.80
2012,05,18,17,32,12.80
2012,05,18,17,33,12.80
2012,05,18,17,34,12.80
2012,05,18,17,35,12.80
2012,05,18,17,36,12.80
2012,05,18,17,37,12.80
2012,05,18,17,38,12.90
2012,05,18,17,39,12.90
2012,05,18,17,40,13.00
2012,05,18,17,41,13.00
2012,05,18,17,42,13.10
2012,05,18,17,43,13.10
2012,05,18,17,44,13.10
2012,05,18,17,45,13.10
2012,05,18,17,46,13.20
2012,05,18,17,47,13.20
2012,05,18,17,48,13.20
2012,05,18,17,49,13.20
2012,05,18,17,50,13.30
2012,05,18,17,51,13.30
2012,05,18,17,52,13.40
2012,05,18,17,53,13.50
2012,05,18,17,54,13.60
2012,05,18,17,55,13.60
2012,05,18,17,56,13.60
2012,05,18,17,57,13.70
2012,05,18,17,58,13.70
2012,05,18,17,59,13.70
2012,05,18,18,00,13.70
2012,05,18,18,01,13.70
2012,05,18,18,02,13.70
2012,05,18,18,03,13.70
2012,05,18,18,04,13.70
2012,05,18,18,05,13.70
2012,05,18,18,06,13.70
2012,05,18,18,07,13.70
2012,05,18,18,08,13.70
2012,05,18,18,09,13.70
2012,05,18,18,10,13.70
2012,05,18,18,11,13.70
2012,05,18,18,12,13.60
2012,05,18,18,13,13.60
2012,05,18,18,14,13.50
2012,05,18,18,15,13.50
2012,05,18,18,16,13.50
2012,05,18,18,17,13.50
2012,05,18,18,18,13.50
2012,05,18,18,19,13.50
2012,05,18,18,20,13.50
2012,05,18,18,21,13.40
2012,05,18,18,22,13.40
2012,05,18,18,23,13.30
2012,05,18,18,24,13.30
2012,05,18,18,25,13.30
2012,05,18,18,26,13.30
2012,05,18,18,27,13.30
2012,05,18,18,28,13.30
2012,05,18,18,29,13.30
2012,05,18,18,30,13.20
2012,05,18,18,31,13.20
2012,05,18,18,32,13.20
2012,05,18,18,33,13.20
2012,05,18,18,34,13.20
2012,05,18,18,35,13.20
2012,05,18,18,36,13.10
2012,05,18,18,37,13.10
2012,05,18,18,38,13.10
2012,05,18,18,39,13.10
2012,05,18,18,40,13.20
2012,05,18,18,41,13.20
2012,05,18,18,42,13.10
2012,05,18,18,43,13.10
2012,05,18,18,44,13.20
2012,05,18,18,45,13.20
2012,05,18,18,46,13.10
2012,05,18,18,47,13.10
2012,05,18,18,48,13.10
2012,05,18,18,49,13.10
2012,05,18,18,50,13.10
2012,05,18,18,51,13.10
2012,05,18,18,52,13.10
2012,05,18,18,53,13.00
2012,05,18,18,54,13.00
2012,05,18,18,55,13.00
2012,05,18,18,56,13.00
2012,05,18,18,57,13.00
2012,05,18,18,58,13.00
2012,05,18,18,59,13.00
2012,05,18,19,00,13.00
2012,05,18,19,01,12.90
2012,05,18,19,02,12.90
2012,05,18,19,03,12.90
2012,05,18,19,04,12.90
2012,05,18,19,05,12.90
2012,05,18,19,06,12.90
2012,05,18,19,07,12.80
2012,05,18,19,08,12.80
2012,05,18,19,09,12.80
2012,05,18,19,10,12.80
2012,05,18,19,11,12.80
2012,05,18,19,12,12.80
2012,05,18,19,13,12.80
2012,05,18,19,14,12.80
2012,05,18,19,15,12.80
2012,05,18,19,16,12.80
2012,05,18,19,17,12.80
2012,05,18,19,18,12.70
2012,05,18,19,19,12.70
2012,05,18,19,20,12.70
2012,05,18,19,21,12.70
2012,05,18,19,22,12.70
2012,05,18,19,23,12.70
2012,05,18,19,24,12.80
2012,05,18,19,25,12.70
2012,05,18,19,26,12.70
2012,05,18,19,27,12.80
2012,05,18,19,28,12.80
2012,05,18,19,29,12.80
2012,05,18,19,30,12.80
2012,05,18,19,31,12.80
2012,05,18,19,32,12.80
2012,05,18,19,33,12.80
2012,05,18,19,34,12.80
2012,05,18,19,35,12.80
2012,05,18,19,36,12.80
2012,05,18,19,37,12.80
2012,05,18,19,38,12.80
2012,05,18,19,39,12.80
2012,05,18,19,40,12.80
2012,05,18,19,41,12.80
2012,05,18,19,42,12.80
2012,05,18,19,43,12.80
2012,05,18,19,44,12.80
2012,05,18,19,45,12.80
2012,05,18,19,46,12.80
2012,05,18,19,47,12.80
2012,05,18,19,48,12.80
2012,05,18,19,49,12.80
2012,05,18,19,50,12.80
2012,05,18,19,51,12.80
2012,05,18,19,52,12.80
2012,05,18,19,53,12.80
2012,05,18,19,54,12.80
2012,05,18,19,55,12.80
2012,05,18,19,56,12.80
2012,05,18,19,57,12.80
2012,05,18,19,58,12.80
2012,05,18,19,59,12.70
2012,05,18,20,00,12.70
2012,05,18,20,01,12.70
2012,05,18,20,02,12.70
2012,05,18,20,03,12.70
2012,05,18,20,04,12.70
2012,05,18,20,05,12.70
2012,05,18,20,06,12.60
2012,05,18,20,07,12.60
2012,05,18,20,08,12.60
2012,05,18,20,09,12.60
2012,05,18,20,10,12.60
2012,05,18,20,11,12.50
2012,05,18,20,12,12.50
2012,05,18,20,13,12.50
2012,05,18,20,14,12.40
2012,05,18,20,15,12.30
2012,05,18,20,16,12.30
2012,05,18,20,17,12.30
2012,05,18,20,18,12.30
2012,05,18,20,19,12.30
2012,05,18,20,20,12.20
2012,05,18,20,21,12.20
2012,05,18,20,22,12.10
2012,05,18,20,23,12.10
2012,05,18,20,24,12.00
2012,05,18,20,25,12.00
2012,05,18,20,26,11.90
2012,05,18,20,27,11.90
2012,05,18,20,28,11.80
2012,05,18,20,29,11.80